Other Public Products
Issued by NWS Grand Forks, ND

Home | Current Version | Previous Version | Graphics & Text | Print | Product List | Glossary On
Versions: 1 2 3 4 5 6 7 8 9 10 11 12 13 14 15 16 17 18 19 20 21 22 23 24 25 26 27 28 29 30 31 32 33 34 35 36 37 38 39 40 41 42 43 44 45 46 47 48 49 50
000
FPUS83 KFGF 012310
OPUFGF
PRAIRIE TO PINES WEATHER ROUNDUP
NATIONAL WEATHER SERVICE EASTERN NORTH DAKOTA/GRAND FORKS ND
600 PM CDT FRI AUG 01 2014

 **SATELLITE DATA USED TO AUGMENT SKY COVER AT AUTOMATED STATIONS**
 *****  WEATHER ACROSS EASTERN NORTH DAKOTA  *****

CITY           SKY/WX    TMP DP  RH WIND       PRES   REMARKS
GRAND FORKS    MOSUNNY   82  59  45 NE6       30.06S
GRAND FORKS AF MOSUNNY   81  60  48 N1        30.07S
GRAND CITY NWS   N/A     81 N/A N/A NE3         N/A
BUXTON         NOT AVBL
DEVILS LAKE    PTSUNNY   81  55  41 SE7       30.07F
FARGO          MOSUNNY   82  55  39 N10       30.06S
WAHPETON ARPT  PTCLDY    81  55  41 N9        30.06S
$$

 *****  WEATHER ACROSS CENTRAL AND WESTERN NORTH DAKOTA  *****

CITY           SKY/WX    TMP DP  RH WIND       PRES   REMARKS
JAMESTOWN      MOSUNNY   80  59  48 CALM      30.07S
BISMARCK       PTSUNNY   87  57  35 E12       30.04S
MINOT          CLOUDY    79  60  52 NE5       30.07S
MINOT AFB      PTSUNNY   81  61  50 NE2       30.06F
GARRISON         N/A     76  69  79 N3        30.08R
WILLISTON      SUNNY     84  51  31 CALM      30.08F
DICKINSON      MOSUNNY   85  59  41 E13       30.06S
HETTINGER      SUNNY     89  51  27 E6        30.04F
$$

 *****  OTHER OBSERVATIONS NORTHEAST NORTH DAKOTA  *****

CITY           SKY/WX    TMP DP  RH WIND       PRES   REMARKS
WALHALLA       NOT AVBL
LANGDON        FAIR      81  57  44 SW6       30.09S
CAVALIER       FAIR      81  59  47 CALM      30.05F
GRAFTON        FAIR      81  57  44 CALM      30.06S
CANDO          FAIR      79  57  47 S6        30.08F
FORT TOTTEN    NOT AVBL
ROLLA            N/A     77  57  50 S5        30.11R
RUGBY          FAIR      77  59  53 E5        30.07F
 ***** THE ABOVE OBSERVATIONS ARE NON NWS ARE NOT QUALITY
        CONTROLLED AND MAY MIS-REPORT RAIN FOR SNOW...
$$

 *****  OTHER OBSERVATIONS SOUTHEAST NORTH DAKOTA *****

CITY           SKY/WX    TMP DP  RH WIND       PRES   REMARKS
COOPERSTOWN    NOT AVBL
VALLEY CITY    FAIR      81  59  47 NE7       30.08S
OAKES          NOT AVBL
GWINNER        PTCLDY   N/A N/A N/A CALM      30.07F
SHEYENNE NWR     N/A     84  59  42 E7        29.95S
BUFFALO        NOT AVBL
WYNDMERE       NOT AVBL
 ***** THE ABOVE OBSERVATIONS ARE NON NWS ARE NOT QUALITY
       CONTROLLED AND MAY MIS-REPORT RAIN FOR SNOW...
$$

  *****  WEATHER ACROSS NORTHERN MINNESOTA  *****

CITY           SKY/WX    TMP DP  RH WIND       PRES   REMARKS
FLAG ISLAND    SUNNY     77  55  47 S3        30.05S
WARROAD        SUNNY     79  59  50 E6        30.07F
ROSEAU         SUNNY     81  55  41 CALM      30.06S
HALLOCK        SUNNY     81  57  44 CALM      30.05S
THF RVR FALLS  MOSUNNY   81  55  41 NE3       30.08S
HALSTAD          N/A     82  55  39 N5          N/A
FOSSTON        MOSUNNY   79  59  50 N3        30.09R
BAUDETTE       SUNNY     77  40  26 NW6       30.08S
WASKISH        SUNNY     79  48  34 CALM      30.07S
CROOKSTON      MOSUNNY   79  59  50 NW5       30.08S
$$
  *****  WEATHER ACROSS CENTRAL AND WEST MINNESOTA  *****

CITY           SKY/WX    TMP DP  RH WIND       PRES   REMARKS
BEMIDJI        MOSUNNY   77  55  45 N8        30.07S
PARK RAPIDS    SUNNY     80  52  37 N5        30.07S
WADENA         SUNNY     79  57  47 NW3       30.06S
DETROIT LAKES  SUNNY     77  54  44 N3        30.09S
MOORHEAD       MOSUNNY   81  57  44 N7        30.07S
FERGUS FALLS   SUNNY     81  54  39 N8        30.05S
ELBOW LAKE     FAIR      78  63  61 SW3       30.06S
MORRIS MN      MOSUNNY   75  66  73 CALM      30.06S
STAPLES        SUNNY     81  52  36 N5        30.05F
WHEATON        SUNNY     79  63  57 W7        30.07F
$$
  *****  WEATHER ELSEWHERE ACROSS MINNESOTA  *****

CITY           SKY/WX    TMP DP  RH WIND       PRES   REMARKS
DULUTH         TSTM      67  57  70 NE7       30.08R
INTRNTL FALLS  SUNNY     77  48  35 NE7       30.06S
ELY            SUNNY     75  48  38 N3        30.06S
CLOQUET        MOSUNNY   72  57  60 S6        30.07R
BRAINERD       SUNNY     78  58  49 NE3       30.06S
HIBBING        SUNNY     80  55  42 N8        30.05S
ALEXANDRIA     SUNNY     81  57  43 NW6       30.08F
SAINT CLOUD    MOSUNNY   84  56  38 SW3       30.05S
MINNEAPOLIS    PTSUNNY   85  57  38 W10       30.03S
$$

  *****  WEATHER ACROSS SOUTH DAKOTA  *****

CITY           SKY/WX    TMP DP  RH WIND       PRES   REMARKS
SIOUX FALLS    MOSUNNY   80  60  50 CALM      30.08F
BROOKINGS      NOT AVBL
WATERTOWN      PTSUNNY   81  54  39 S6        30.08F
HURON          SUNNY     83  57  41 SE7       30.04F
SISSETON         N/A     84  61  45 NE3       30.05S
ABERDEEN       SUNNY     83  54  36 E7        30.06S
MITCHELL       SUNNY     83  57  41 SE9       30.07F
PIERRE         SUNNY     90  56  31 E20       29.97F
MOBRIDGE       MOSUNNY   86  58  38 SE10      30.00S
RAPID CITY     PTSUNNY   81  49  32 W6        30.09R
$$

  *****  SOME WEATHER IN NEARBY STATES *****

CITY           SKY/WX    TMP DP  RH WIND       PRES   REMARKS
GLASGOW MT     RAIN      73  61  65 N12G30    30.06R
GREAT FALLS MT MOSUNNY   89  38  16 VRB5      30.12F
CHEYENNE WY    MOSUNNY   76  43  30 VRB6G20   30.29F
SCOTTSBLUFF NE SUNNY     90  39  16 E8        30.14F
OMAHA NE       MOSUNNY   82  59  45 E7        30.07F
DES MOINES IA  MOSUNNY   84  58  40 E5        30.06S
DAVENPORT IA   MOSUNNY   81  61  50 NW3       30.05F
CHICAGO IL     PTSUNNY   76  58  53 S10       30.07R
EAU CLAIRE WI  MOSUNNY   82  59  45 N7        30.04S
LA CROSSE WI   MOSUNNY   83  59  44 W5        30.05R
$$

  *****  SOME NATIONAL WEATHER *****

CITY           SKY/WX    TMP DP  RH WIND       PRES   REMARKS
LA GUARDIA NY  CLOUDY    76  65  68 S13       30.18F
RALEIGH NC     LGT RAIN  65  62  90 NE8       30.10S FOG
ATLANTA GA     MOSUNNY   79  66  64 SE7       30.04S
NEW ORLEANS LA CLOUDY    84  67  56 S8        29.96S
OKLAHOMA CITY  PTSUNNY   84  62  47 S5        30.05S
ALBUQUERQUE NM PTSUNNY   80  53  39 E10       30.18F
SALT LAKE CITY MOSUNNY   89  49  25 NW9       30.09F
LOS ANGELES CA MOSUNNY   74  64  71 W13       29.89S
BOISE ID       MOSUNNY   97  44  16 NW7       29.99F HX  93
SEATTLE WA     PTSUNNY   84  52  33 N10       30.01R
$$

*** WEATHER ACROSS MANITOBA...SASKATCHEWAN AND ONTARIO ***
                ***ONTARIO***

CITY           SKY/WX    TMP DP  RH WIND       PRES   REMARKS
GERALDTON      NOT AVBL
THUNDER BAY    NOT AVBL
SIOUX LOOKOUT  NOT AVBL
TORONTO        PTSUNNY   70  63  78 CALM      30.11S
BIG TROUT LK   NOT AVBL
PICKLE LAKE    NOT AVBL
DRYDEN         NOT AVBL
KENORA         NOT AVBL
$$
                *** MANITOBA***

CITY           SKY/WX    TMP DP  RH WIND       PRES   REMARKS
BRANDON        NOT AVBL
DAUPHIN        NOT AVBL
ISLAND LAKE    NOT AVBL
PILOT MOUND    NOT AVBL
THE PAS        NOT AVBL
THOMPSON       NOT AVBL
WINNIPEG       NOT AVBL
$$
                ***SASKATCHEWAN***

CITY           SKY/WX    TMP DP  RH WIND       PRES   REMARKS
ESTEVAN        NOT AVBL
KINDERSLEY     NOT AVBL
LLOYDMINSTER   NOT AVBL
PRINCE ALBERT  NOT AVBL
REGINA         NOT AVBL
YORKTON        NOT AVBL
N. BATTLEFORD  NOT AVBL
LA RONGE       NOT AVBL


USA.gov is the U.S. government's official web portal to all federal, state and local government web resources and services.